This is the latest recevied weather packets stored in our database for station/object WP3OF-5. If no packets are shown the sender has not sent any weather packets the latest 10 day(s).
| Time | Temp. | Humidity | Pressure | Rain* | Wind** | Luminosity | Snow |
|---|---|---|---|---|---|---|---|
| 1777576463 | 27.22° C | 81% | 1012.4 hPa | 0 mm | - | - | - |
| 1777576161 | 27.78° C | 82% | 1012.5 hPa | 0 mm | - | - | - |
| 1777575856 | 27.22° C | 82% | 1012.4 hPa | 0 mm | - | - | - |
| 1777575553 | 27.78° C | 81% | 1012.5 hPa | 0 mm | - | - | - |
| 1777575249 | 28.33° C | 80% | 1012.6 hPa | 0 mm | - | - | - |
| 1777574945 | 28.33° C | 78% | 1012.7 hPa | 0 mm | - | - | - |
| 1777574641 | 28.33° C | 78% | 1012.4 hPa | 0 mm | - | - | - |
| 1777574338 | 28.33° C | 78% | 1012.6 hPa | 0 mm | - | - | - |
| 1777574038 | 27.78° C | 79% | 1012.7 hPa | 0 mm | - | - | - |
| 1777573733 | 27.22° C | 81% | 1012.5 hPa | 0 mm | - | - | - |
| 1777573430 | 27.22° C | 81% | 1012.7 hPa | 0 mm | - | - | - |
| 1777573125 | 27.78° C | 81% | 1012.8 hPa | 0 mm | - | - | - |
| 1777572822 | 28.33° C | 78% | 1013.3 hPa | 0 mm | - | - | - |
| 1777572518 | 28.33° C | 78% | 1013.3 hPa | 0 mm | - | - | - |
| 1777572213 | 28.33° C | 77% | 1013.2 hPa | 0 mm | - | - | - |
| 1777571909 | 28.33° C | 77% | 1013.2 hPa | 0 mm | - | - | - |
| 1777571604 | 28.33° C | 76% | 1013 hPa | 0 mm | - | - | - |
| 1777571302 | 28.89° C | 75% | 1013.1 hPa | 0 mm | - | - | - |
| 1777570998 | 28.89° C | 75% | 1013.1 hPa | 0 mm | - | - | - |
| 1777570694 | 28.33° C | 77% | 1013.4 hPa | 0 mm | - | - | - |
| 1777570390 | 28.33° C | 77% | 1013.3 hPa | 0 mm | - | - | - |
| 1777570086 | 27.78° C | 79% | 1013.6 hPa | 0 mm | - | - | - |
| 1777569782 | 27.78° C | 79% | 1013.4 hPa | 0 mm | - | - | - |
| 1777569478 | 27.78° C | 79% | 1013.3 hPa | 0 mm | - | - | - |
| 1777569175 | 27.78° C | 78% | 1013.8 hPa | 0 mm | - | - | - |
* Rain latest hour (hover to see other rain measurements)
** Current wind speed in m/s (hover to see current wind gust speed)